| time (UTC) | temp C | wind direction | speed KPH | gust KPH | rain 1hr cm | rain 24hr cm | rain mn cm | humidity % | barometer mb |
| 20260505121803 | 18 | 235 | 4.8 | 11.3 | 0.00 | 0.00 | 0.00 | 75 | 1011.5 |
| 20260505120903 | 18 | 235 | 3.2 | 8.0 | 0.00 | 0.00 | 0.00 | 75 | 1011.7 |
| 20260505120004 | 18 | 239 | 1.6 | 8.0 | 0.00 | 0.00 | 0.00 | 75 | 1011.6 |
| 20260505115403 | 18 | 230 | 1.6 | 4.8 | 0.00 | 0.00 | 0.00 | 77 | 1011.7 |
| 20260505114503 | 17 | 231 | 1.6 | 8.0 | 0.00 | 0.00 | 0.00 | 79 | 1011.6 |
| 20260505113603 | 17 | 236 | 1.6 | 8.0 | 0.00 | 0.00 | 0.00 | 80 | 1011.7 |
| 20260505112703 | 16 | 227 | 1.6 | 6.4 | 0.00 | 0.00 | 0.00 | 81 | 1011.7 |
| 20260505111803 | 16 | 233 | 1.6 | 6.4 | 0.00 | 0.00 | 0.00 | 81 | 1011.8 |
| 20260505110903 | 16 | 238 | 3.2 | 11.3 | 0.00 | 0.00 | 0.00 | 81 | 1011.7 |
| 20260505101803 | 15 | 226 | 4.8 | 14.5 | 0.00 | 0.00 | 0.00 | 84 | 1010.9 |
| 20260505101113 | 15 | 230 | 4.8 | 14.5 | 0.00 | 0.00 | 0.00 | 84 | 1010.7 |
| 20260505100003 | 15 | 233 | 3.2 | 11.3 | 0.00 | 0.00 | 0.00 | 83 | 1010.6 |
| 20260505095612 | 15 | 234 | 4.8 | 14.5 | 0.00 | 0.00 | 0.00 | 83 | 1010.6 |
| 20260505094503 | 15 | 235 | 6.4 | 19.3 | 0.00 | 0.00 | 0.00 | 83 | 1010.5 |
| 20260505093603 | 15 | 237 | 6.4 | 19.3 | 0.00 | 0.00 | 0.00 | 82 | 1010.4 |
| 20260505092703 | 15 | 233 | 6.4 | 14.5 | 0.00 | 0.00 | 0.00 | 82 | 1010.5 |
| 20260505091803 | 15 | 232 | 4.8 | 19.3 | 0.00 | 0.00 | 0.00 | 83 | 1010.5 |
| 20260505091114 | 15 | 234 | 4.8 | 14.5 | 0.00 | 0.00 | 0.00 | 83 | 1010.3 |
| 20260505090003 | 15 | 231 | 4.8 | 12.9 | 0.00 | 0.00 | 0.00 | 83 | 1010.4 |
| 20260505085403 | 15 | 230 | 3.2 | 12.9 | 0.00 | 0.00 | 0.00 | 84 | 1010.4 |
| 20260505084503 | 15 | 227 | 1.6 | 8.0 | 0.00 | 0.00 | 0.00 | 84 | 1010.5 |
| 20260505083603 | 15 | 232 | 4.8 | 12.9 | 0.00 | 0.00 | 0.00 | 83 | 1010.5 |
| 20260505082703 | 15 | 228 | 3.2 | 11.3 | 0.00 | 0.00 | 0.00 | 83 | 1010.5 |
| 20260505081803 | 15 | 215 | 3.2 | 12.9 | 0.00 | 0.00 | 0.00 | 83 | 1010.4 |
| 20260505080903 | 15 | 230 | 3.2 | 9.7 | 0.00 | 0.00 | 0.00 | 83 | 1010.6 |
| 20260505080217 | 15 | 227 | 3.2 | 11.3 | 0.00 | 0.00 | 0.00 | 83 | 1010.5 |
| 20260505075403 | 14 | 223 | 4.8 | 11.3 | 0.00 | 0.00 | 0.00 | 83 | 1010.5 |
| 20260505074503 | 14 | 219 | 3.2 | 12.9 | 0.00 | 0.00 | 0.00 | 83 | 1010.4 |
| 20260505073603 | 15 | 222 | 3.2 | 16.1 | 0.00 | 0.00 | 0.00 | 82 | 1010.5 |
| 20260505072703 | 15 | 229 | 1.6 | 11.3 | 0.00 | 0.00 | 0.00 | 82 | 1010.3 |
| 20260505071803 | 15 | 220 | 3.2 | 14.5 | 0.00 | 0.00 | 0.00 | 81 | 1010.2 |
| 20260505070903 | 15 | 227 | 3.2 | 14.5 | 0.00 | 0.00 | 0.00 | 81 | 1010.2 |
| 20260505070213 | 15 | 226 | 3.2 | 14.5 | 0.00 | 0.00 | 0.00 | 81 | 1010.3 |
| 20260505065403 | 15 | 225 | 4.8 | 12.9 | 0.00 | 0.00 | 0.00 | 80 | 1010.3 |
| 20260505064503 | 15 | 218 | 4.8 | 14.5 | 0.00 | 0.00 | 0.00 | 80 | 1010.4 |
| 20260505063603 | 15 | 220 | 4.8 | 11.3 | 0.00 | 0.00 | 0.00 | 79 | 1010.2 |
| 20260505062703 | 15 | 226 | 4.8 | 16.1 | 0.00 | 0.00 | 0.00 | 79 | 1010.4 |
| 20260505061803 | 15 | 224 | 4.8 | 16.1 | 0.00 | 0.00 | 0.00 | 79 | 1010.4 |
| 20260505060903 | 15 | 230 | 3.2 | 16.1 | 0.00 | 0.00 | 0.00 | 78 | 1010.3 |
| 20260505060003 | 15 | 227 | 3.2 | 14.5 | 0.00 | 0.00 | 0.00 | 78 | 1010.3 |
| 20260505055403 | 15 | 223 | 3.2 | 9.7 | 0.00 | 0.00 | 0.00 | 78 | 1010.4 |
| 20260505054503 | 15 | 217 | 3.2 | 12.9 | 0.00 | 0.00 | 0.00 | 77 | 1010.5 |
| 20260505053603 | 15 | 222 | 3.2 | 9.7 | 0.00 | 0.00 | 0.00 | 77 | 1010.5 |
| 20260505052703 | 15 | 223 | 3.2 | 11.3 | 0.00 | 0.00 | 0.00 | 76 | 1010.6 |
| 20260505051803 | 15 | 224 | 4.8 | 12.9 | 0.00 | 0.00 | 0.00 | 75 | 1010.7 |
| 20260505050903 | 15 | 226 | 3.2 | 14.5 | 0.00 | 0.00 | 0.00 | 75 | 1010.7 |
| 20260505050214 | 15 | 220 | 3.2 | 8.0 | 0.00 | 0.00 | 0.00 | 75 | 1010.8 |
| 20260505040903 | 15 | 217 | 1.6 | 12.9 | 0.00 | 0.00 | 0.00 | 74 | 1011.0 |
| 20260505040004 | 15 | 224 | 3.2 | 9.7 | 0.00 | 0.00 | 0.00 | 74 | 1011.0 |
| 20260505035403 | 15 | 214 | 3.2 | 8.0 | 0.00 | 0.00 | 0.00 | 74 | 1011.0 |
| 20260505034503 | 15 | 219 | 3.2 | 9.7 | 0.00 | 0.00 | 0.00 | 75 | 1011.0 |
| 20260505033603 | 15 | 227 | 1.6 | 9.7 | 0.00 | 0.00 | 0.00 | 75 | 1011.0 |
| 20260505032703 | 15 | 209 | 1.6 | 6.4 | 0.00 | 0.00 | 0.00 | 74 | 1011.0 |
| 20260505031803 | 15 | 230 | 3.2 | 11.3 | 0.00 | 0.00 | 0.00 | 74 | 1011.2 |
| 20260505030903 | 15 | 217 | 1.6 | 9.7 | 0.00 | 0.00 | 0.00 | 73 | 1011.3 |
| 20260505030003 | 15 | 209 | 3.2 | 8.0 | 0.00 | 0.00 | 0.00 | 73 | 1011.2 |
| 20260505025403 | 15 | 222 | 3.2 | 8.0 | 0.00 | 0.00 | 0.00 | 72 | 1011.4 |
| 20260505024503 | 15 | 218 | 3.2 | 9.7 | 0.00 | 0.00 | 0.00 | 72 | 1011.4 |
| 20260505023603 | 15 | 191 | 1.6 | 8.0 | 0.00 | 0.00 | 0.00 | 71 | 1011.5 |
| 20260505022914 | 15 | 204 | 1.6 | 4.8 | 0.00 | 0.00 | 0.00 | 70 | 1011.4 |
| 20260505021803 | 16 | 219 | 1.6 | 8.0 | 0.00 | 0.00 | 0.00 | 69 | 1011.5 |
| 20260505020903 | 16 | 232 | 3.2 | 9.7 | 0.00 | 0.00 | 0.00 | 68 | 1011.6 |
| 20260505020003 | 16 | 207 | 1.6 | 9.7 | 0.00 | 0.00 | 0.00 | 66 | 1011.5 |
| 20260505015403 | 16 | 223 | 1.6 | 8.0 | 0.00 | 0.00 | 0.00 | 65 | 1011.5 |
| 20260505014503 | 16 | 223 | 3.2 | 9.7 | 0.00 | 0.00 | 0.00 | 64 | 1011.6 |
| 20260505013817 | 16 | 220 | 1.6 | 8.0 | 0.00 | 0.00 | 0.00 | 64 | 1011.4 |
| 20260505012914 | 16 | 223 | 1.6 | 8.0 | 0.00 | 0.00 | 0.00 | 63 | 1011.4 |
| 20260505011803 | 16 | 214 | 1.6 | 9.7 | 0.00 | 0.00 | 0.00 | 63 | 1011.3 |
| 20260505010903 | 17 | 205 | 1.6 | 6.4 | 0.00 | 0.00 | 0.00 | 62 | 1011.2 |
| 20260505010003 | 17 | 220 | 1.6 | 4.8 | 0.00 | 0.00 | 0.00 | 62 | 1011.1 |
| 20260505005403 | 17 | 217 | 1.6 | 6.4 | 0.00 | 0.00 | 0.00 | 61 | 1011.0 |
| 20260505004715 | 17 | 210 | 1.6 | 6.4 | 0.00 | 0.00 | 0.00 | 61 | 1011.0 |
| 20260505003603 | 18 | 215 | 3.2 | 11.3 | 0.00 | 0.00 | 0.00 | 60 | 1010.9 |
| 20260505002915 | 18 | 216 | 3.2 | 9.7 | 0.00 | 0.00 | 0.00 | 60 | 1010.9 |
| 20260505001803 | 18 | 214 | 3.2 | 12.9 | 0.00 | 0.00 | 0.00 | 60 | 1010.6 |
| 20260505000903 | 18 | 221 | 3.2 | 11.3 | 0.00 | 0.00 | 0.00 | 60 | 1010.4 |
| 20260505000218 | 18 | 219 | 3.2 | 11.3 | 0.00 | 0.00 | 0.00 | 60 | 1010.3 |
| 20260504235403 | 18 | 208 | 3.2 | 9.7 | 0.00 | 0.00 | 0.00 | 59 | 1010.3 |
| 20260504234716 | 19 | 223 | 3.2 | 9.7 | 0.00 | 0.00 | 0.00 | 60 | 1010.2 |
| 20260504233603 | 19 | 227 | 3.2 | 14.5 | 0.00 | 0.00 | 0.00 | 58 | 1010.0 |
| 20260504232703 | 20 | 209 | 3.2 | 14.5 | 0.00 | 0.00 | 0.00 | 58 | 1009.9 |
| 20260504231803 | 20 | 206 | 3.2 | 14.5 | 0.00 | 0.00 | 0.00 | 56 | 1009.9 |
| 20260504230903 | 21 | 223 | 3.2 | 14.5 | 0.00 | 0.00 | 0.00 | 54 | 1009.8 |
| 20260504230003 | 22 | 238 | 4.8 | 9.7 | 0.00 | 0.00 | 0.00 | 45 | 1009.8 |
| 20260504225403 | 22 | 234 | 4.8 | 16.1 | 0.00 | 0.00 | 0.00 | 42 | 1009.6 |
| 20260504224503 | 23 | 238 | 4.8 | 14.5 | 0.00 | 0.00 | 0.00 | 42 | 1009.6 |
| 20260504223603 | 23 | 245 | 3.2 | 12.9 | 0.00 | 0.00 | 0.00 | 41 | 1009.6 |
| 20260504222703 | 23 | 243 | 4.8 | 14.5 | 0.00 | 0.00 | 0.00 | 40 | 1009.6 |
| 20260504221803 | 23 | 237 | 4.8 | 22.5 | 0.00 | 0.00 | 0.00 | 40 | 1009.6 |
| 20260504220903 | 24 | 237 | 3.2 | 8.0 | 0.00 | 0.00 | 0.00 | 40 | 1009.7 |
| 20260504220003 | 24 | 234 | 6.4 | 19.3 | 0.00 | 0.00 | 0.00 | 40 | 1009.7 |
| 20260504215403 | 25 | 231 | 6.4 | 19.3 | 0.00 | 0.00 | 0.00 | 39 | 1009.8 |
| 20260504214503 | 25 | 234 | 6.4 | 14.5 | 0.00 | 0.00 | 0.00 | 38 | 1009.7 |
| 20260504213603 | 25 | 225 | 6.4 | 19.3 | 0.00 | 0.00 | 0.00 | 37 | 1009.9 |
| 20260504212703 | 25 | 235 | 8.0 | 17.7 | 0.00 | 0.00 | 0.00 | 38 | 1009.9 |
| 20260504211803 | 25 | 233 | 6.4 | 17.7 | 0.00 | 0.00 | 0.00 | 37 | 1009.8 |
| 20260504210903 | 26 | 230 | 4.8 | 19.3 | 0.00 | 0.00 | 0.00 | 37 | 1009.9 |
| 20260504210003 | 25 | 237 | 6.4 | 19.3 | 0.00 | 0.00 | 0.00 | 38 | 1009.8 |
| 20260504205403 | 25 | 245 | 4.8 | 19.3 | 0.00 | 0.00 | 0.00 | 37 | 1009.8 |
| 20260504204503 | 25 | 236 | 6.4 | 17.7 | 0.00 | 0.00 | 0.00 | 39 | 1009.9 |
| 20260504203603 | 25 | 235 | 8.0 | 19.3 | 0.00 | 0.00 | 0.00 | 39 | 1009.8 |
| 20260504202703 | 25 | 232 | 8.0 | 17.7 | 0.00 | 0.00 | 0.00 | 40 | 1009.7 |
| 20260504201803 | 24 | 234 | 8.0 | 22.5 | 0.00 | 0.00 | 0.00 | 39 | 1010.0 |
| 20260504201112 | 24 | 227 | 8.0 | 19.3 | 0.00 | 0.00 | 0.00 | 38 | 1009.9 |
| 20260504200003 | 24 | 237 | 8.0 | 19.3 | 0.00 | 0.00 | 0.00 | 41 | 1010.0 |
| 20260504195403 | 24 | 233 | 8.0 | 19.3 | 0.00 | 0.00 | 0.00 | 39 | 1010.1 |
| 20260504194503 | 23 | 238 | 6.4 | 20.9 | 0.00 | 0.00 | 0.00 | 40 | 1010.3 |
| 20260504193603 | 24 | 233 | 4.8 | 19.3 | 0.00 | 0.00 | 0.00 | 40 | 1010.3 |
| 20260504192703 | 23 | 237 | 6.4 | 19.3 | 0.00 | 0.00 | 0.00 | 42 | 1010.4 |
| 20260504191803 | 23 | 233 | 6.4 | 20.9 | 0.00 | 0.00 | 0.00 | 42 | 1010.4 |
| 20260504190903 | 23 | 237 | 6.4 | 16.1 | 0.00 | 0.00 | 0.00 | 42 | 1010.7 |
| 20260504190003 | 23 | 227 | 6.4 | 27.4 | 0.00 | 0.00 | 0.00 | 43 | 1010.9 |
| 20260504185403 | 23 | 227 | 6.4 | 17.7 | 0.00 | 0.00 | 0.00 | 43 | 1010.9 |
| 20260504184503 | 23 | 236 | 6.4 | 19.3 | 0.00 | 0.00 | 0.00 | 43 | 1011.2 |
| 20260504183816 | 23 | 239 | 6.4 | 17.7 | 0.00 | 0.00 | 0.00 | 45 | 1011.0 |
| 20260504182703 | 23 | 243 | 6.4 | 22.5 | 0.00 | 0.00 | 0.00 | 41 | 1011.2 |
| 20260504181803 | 23 | 244 | 6.4 | 19.3 | 0.00 | 0.00 | 0.00 | 43 | 1011.3 |
| 20260504180903 | 22 | 232 | 8.0 | 22.5 | 0.00 | 0.00 | 0.00 | 43 | 1011.3 |
| 20260504180003 | 23 | 246 | 3.2 | 17.7 | 0.00 | 0.00 | 0.00 | 42 | 1011.4 |
| 20260504175612 | 23 | 254 | 4.8 | 22.5 | 0.00 | 0.00 | 0.00 | 45 | 1011.3 |
| 20260504174503 | 22 | 242 | 6.4 | 20.9 | 0.00 | 0.00 | 0.00 | 44 | 1011.5 |
| 20260504173603 | 22 | 241 | 6.4 | 19.3 | 0.00 | 0.00 | 0.00 | 43 | 1011.8 |
| 20260504172703 | 22 | 241 | 6.4 | 17.7 | 0.00 | 0.00 | 0.00 | 45 | 1011.6 |
| 20260504171803 | 22 | 244 | 9.7 | 25.7 | 0.00 | 0.00 | 0.00 | 44 | 1011.7 |
| 20260504170903 | 22 | 242 | 8.0 | 20.9 | 0.00 | 0.00 | 0.00 | 45 | 1011.9 |
| 20260504170216 | 21 | 234 | 9.7 | 20.9 | 0.00 | 0.00 | 0.00 | 42 | 1012.2 |
| 20260504150903 | 20 | 224 | 6.4 | 14.5 | 0.00 | 0.00 | 0.00 | 49 | 1013.3 |
| 20260504140903 | 18 | 238 | 6.4 | 29.0 | 0.00 | 0.00 | 0.00 | 54 | 1013.8 |